Location: ????????
(54.9045°N, 39.1041°E)
Time: 03:46:21
(UTC+00:00)

NOSS 3-4 (A) - Pass Details

Date: 14 April 2024
Orbit: 806 x 1405 km, 63.4° (Epoch: 23 May)

Event Time Altitude Azimuth Distance (km) Brightness Sun altitude
Exits shadow 00:17:01 25° 236° (SW) 1,664 4.1 -16.1°
Maximum altitude 00:20:29 82° 322° (NW) 909 3.3 -15.8°
Drops below altitude 10° 00:26:51 10° 51° (NE) 2,752 7.3 -15.1°
Sets 00:29:37 0° 52° (NE) 3,795 8.5 -14.8°
